User: anonymous   Login
Location: Harbor Island
(32.3990°N, 80.4435°W)
Time: 04:25:00
(UTC-04:00)
Language:

Cosmos 1455 - Orbit

View from above orbital plane
View from above orbital plane
View from above satellite
View from above satellite

Ground track
Ground track

The orbit data is extracted from the following two-line orbital elements,

1 14032U 83037A   18145.49380315 +.00000563 +00000-0 +26309-4 0  9991
2 14032 082.5152 109.1415 0017657 164.5761 195.6015 15.17561572913046
Epoch (UTC): 25 May 2018 11:51:04
Eccentricity: 0.0017657
inclination: 82.5152°
perigee height: 501 km
apogee height: 525 km
right ascension of ascending node: 109.1415°
argument of perigee: 164.5761°
revolutions per day: 15.17561572
mean anomaly at epoch: 195.6015°
orbit number at epoch: 91304

The dashed part of the orbit path shows where the satellite is in the earth's shadow,  

DLR